Watertown, SD

8:21 PM CST on December 08, 2019 (GMT -0600)
Watertown Municipal

Weather History for KATY - November, 2019

Change the Weather History Date:

Friday, November 15, 2019

  Actual Average Record
Temperature  
Mean Temperature 34 °F 30 °F  
Max Temperature 48 °F 39 °F 71 °F (1953)
Min Temperature 21 °F 21 °F -5 °F (1932)
Degree Days  
Heating Degree Days 30    
Month to date heating degree days 593  
Since 1 July heating degree days 1493  
Cooling Degree Days 0    
Month to date cooling degree days 0  
Year to date cooling degree days 466  
Moisture  
Dew Point 31 °F    
Average Humidity 77    
Maximum Humidity 100    
Minimum Humidity 56    
Precipitation  
Precipitation 0.00 in 0.02 in 0.33 in (1947)
Month to date precipitation 0.06 0.43  
Year to date precipitation 31.81 21.22  
Snow  
Snow 0.00 in 0.20 in 4.90 in (1947)
Month to date snowfall 0.6 1.8  
Since 1 July snowfall 2.1 3.5  
Snow Depth 0.00 in    
Sea Level Pressure  
Sea Level Pressure 30.18 in    
Wind  
Wind Speed 6 mph ()    
Max Wind Speed 18 mph    
Max Gust Speed 28 mph    
Visibility 10.0 miles    
Events      
T = Trace of Precipitation, MM = Missing Value Source: Averaged Metar Reports

Daily Weather History Graph

Daily Weather History Graph

Search for Another Location

Airport or City:

Astronomy

Nov. 15, 2019 Rise Set
Actual Time 7:25 AM CST 5:00 PM CST
Civil Twilight 6:54 AM CST 5:31 PM CST
Nautical Twilight 6:18 AM CST 6:07 PM CST
Astronomical Twilight 5:43 AM CST 6:41 PM CST
Moon 7:31 PM CST (11/15) 10:28 AM CST (11/15)
Length of Visible Light 10h 37m
Length of Day
9h 34m
Waning Gibbous, 90% of the Moon is Illuminated
Nov 15
Waning Gibbous
Nov 19
Last Quarter
Nov 26
New
Dec 4
First Quarter
Dec 11
Full

Hourly Weather History & Observations

Time (CST) Temp. Windchill Dew Point Humidity Pressure Visibility Wind Dir Wind Speed Gust Speed Precip Events Conditions
12:53 AM 26.1 °F 21.9 °F 25.0 °F 96% 30.26 in 10.0 mi SSE 3.5 mph - N/A   Clear
1:53 AM 26.1 °F 21.9 °F 24.1 °F 92% 30.26 in 10.0 mi SSE 3.5 mph - N/A   Clear
2:53 AM 21.9 °F - 21.0 °F 96% 30.26 in 10.0 mi Calm Calm - N/A   Clear
5:53 AM 26.1 °F - 24.1 °F 92% 30.25 in 10.0 mi Calm Calm - N/A   Clear
7:53 AM 30.9 °F 26.2 °F 28.0 °F 89% 30.24 in 10.0 mi ESE 4.6 mph - N/A   Clear
8:53 AM 34.0 °F 29.8 °F 30.0 °F 85% 30.24 in 10.0 mi East 4.6 mph - N/A   Clear
9:53 AM 37.0 °F 31.6 °F 32.0 °F 82% 30.25 in 10.0 mi ESE 6.9 mph - N/A   Clear
10:53 AM 41.0 °F 35.2 °F 33.1 °F 73% 30.24 in 10.0 mi SE 9.2 mph - N/A   Clear
11:53 AM 45.0 °F 41.2 °F 34.0 °F 65% 30.23 in 10.0 mi ESE 6.9 mph - N/A   Clear
12:53 PM 46.9 °F - 34.0 °F 61% 30.19 in 10.0 mi ESE 10.4 mph 19.6 mph N/A   Clear
1:53 PM 48.0 °F - 34.0 °F 58% 30.18 in 10.0 mi East 9.2 mph 21.9 mph N/A   Clear
2:53 PM 46.9 °F - 34.0 °F 61% 30.17 in 10.0 mi ESE 10.4 mph 20.7 mph N/A   Clear
3:53 PM 46.0 °F 40.2 °F 33.1 °F 61% 30.14 in 10.0 mi ESE 12.7 mph 24.2 mph N/A   Clear
4:53 PM 43.0 °F 37.2 °F 33.1 °F 68% 30.14 in 10.0 mi East 10.4 mph - N/A   Clear
5:53 PM 39.9 °F 34.5 °F 32.0 °F 73% 30.15 in 10.0 mi ESE 8.1 mph - N/A   Clear
6:53 PM 37.9 °F 31.5 °F 32.0 °F 79% 30.15 in 10.0 mi ESE 9.2 mph - N/A   Clear
7:53 PM 37.0 °F 31.0 °F 32.0 °F 82% 30.14 in 10.0 mi ESE 8.1 mph - N/A   Clear
8:53 PM 39.0 °F 32.8 °F 32.0 °F 76% 30.11 in 10.0 mi SE 9.2 mph - N/A   Clear
9:53 PM 39.9 °F 31.8 °F 32.0 °F 73% 30.09 in 10.0 mi SE 15.0 mph 26.5 mph N/A   Clear
10:53 PM 39.9 °F 31.4 °F 32.0 °F 73% 30.06 in 10.0 mi SSE 16.1 mph - N/A   Clear
11:53 PM 39.0 °F 30.3 °F 30.9 °F 73% 30.04 in 10.0 mi SSE 16.1 mph 25.3 mph N/A   Clear